Terminal Aerodrome Forecast
Issued by NWS Midland/Odessa, TX

Home | Current Version | Previous Version | Text Only | Print | Product List | Glossary On
Versions: 1 2 3 4 5 6 7 8 9 10 11 12 13
000
FTUS44 KMAF 172320
TAFMAF
TAF
KMAF 172320Z 1800/1824 18007KT P6SM SCT150 SCT250
      TEMPO 1811/1815 3SM BR OVC005=

USA.gov is the U.S. government's official web portal to all federal, state and local government web resources and services.